Location: Congrier
(47.8099°N, 1.1170°W)
Time: 13:31:14
(UTC+00:00)

Cosmos 676 Rocket - Pass Details

Date: 28 January 2023
Orbit: 754 x 782 km, 74.0° (Epoch: 21 March)

Event Time Altitude Azimuth Distance (km) Brightness Sun altitude
Rises 19:12:17 0° 186° (S) 3,251 7.4 -22.4°
Reaches altitude 10° 19:14:42 10° 182° (S) 2,325 6.5 -22.8°
Enters shadow 19:18:56 47° 141° (SE) 1,017 4.3 -23.6°
